FW5693 Weather Reports


Display with metric or nautical units.
time (UTC)temp
F
wind
direction
speed
MPH
gust
MPH
rain 1hr
in
rain 24hr
in
rain mn
in
humidity
%
barometer
mb
20240623180521 81 196 4.0 9.0 0.00 0.57 0.57 73 1002.1
20240623175544 80 260 5.0 10.0 0.00 0.57 0.57 74 1002.1
20240623174527 79 235 4.0 8.0 0.00 0.57 0.57 76 1002.3
20240623173530 81 266 4.0 6.0 0.00 0.57 0.57 77 1002.3
20240623172533 80 249 5.0 8.0 0.00 0.57 0.57 78 1002.5
20240623171518 80 269 5.0 8.0 0.00 0.57 0.57 79 1002.5
20240623170521 79 273 4.0 6.0 0.00 0.57 0.57 81 1002.6
20240623165524 78 259 5.0 8.0 0.00 0.57 0.57 82 1002.7
20240623164528 78 262 4.0 7.0 0.00 0.57 0.57 83 1002.9
20240623163550 76 240 4.0 7.0 0.00 0.57 0.57 87 1003.2
20240623162533 73 161 2.0 4.0 0.00 0.57 0.57 91 1003.2
20240623161600 72 270 3.0 5.0 0.00 0.57 0.57 92 1003.5
20240623160521 72 234 2.0 5.0 0.01 0.57 0.57 92 1003.5
20240623155525 72 243 2.0 6.0 0.02 0.57 0.57 92 1003.6
20240623154529 72 248 3.0 5.0 0.03 0.57 0.57 92 1003.9
20240623153525 72 254 3.0 4.0 0.04 0.57 0.57 92 1003.8
20240623152516 72 251 2.0 5.0 0.04 0.57 0.57 92 1004.0
20240623151519 72 251 2.0 5.0 0.04 0.57 0.57 92 1004.0
20240623150517 72 256 2.0 4.0 0.03 0.56 0.56 92 1004.1
20240623145525 72 245 4.0 8.0 0.02 0.55 0.55 91 1004.2
20240623144529 73 257 3.0 5.0 0.01 0.54 0.54 90 1004.2
20240623143532 73 259 0.0 2.0 0.00 0.53 0.53 91 1004.1
20240623142518 73 180 0.0 2.0 0.00 0.53 0.53 91 1004.0
20240623141540 73 0.0 2.0 0.00 0.53 0.53 92 1004.2
20240623140524 73 270 0.0 2.0 0.00 0.53 0.53 93 1004.3
20240623135527 73 179 1.0 3.0 0.00 0.53 0.53 93 1004.3
20240623134611 73 0.0 0.0 0.00 0.53 0.53 94 1004.3
20240623133533 73 158 1.0 3.0 0.00 0.53 0.53 94 1004.5
20240623132518 72 135 0.0 2.0 0.00 0.53 0.53 95 1004.5
20240623131521 73 0.0 0.0 0.00 0.54 0.53 96 1004.8
20240623130545 73 241 1.0 3.0 0.00 0.54 0.53 96 1004.9
20240623125528 73 0.0 0.0 0.00 0.71 0.53 96 1005.0
20240623124526 72 338 0.0 1.0 0.00 0.77 0.53 96 1005.1
20240623123550 72 225 0.0 2.0 0.00 0.77 0.53 96 1005.1
20240623122532 72 248 0.0 1.0 0.00 0.77 0.53 96 1005.4
20240623121537 71 248 0.0 2.0 0.00 0.77 0.53 96 1005.6
20240623120521 71 0.0 0.0 0.00 0.78 0.53 96 1005.7
20240623115523 71 0.0 1.0 0.00 0.78 0.53 96 1005.8
20240623114520 71 262 1.0 3.0 0.00 0.78 0.53 96 1005.9
20240623113518 71 225 0.0 2.0 0.00 0.78 0.53 96 1006.0
20240623112533 71 203 1.0 3.0 0.00 0.78 0.53 96 1006.4
20240623111518 71 169 0.0 2.0 0.00 0.78 0.53 96 1006.4
20240623110522 70 173 1.0 2.0 0.00 0.78 0.53 96 1006.4
20240623105524 70 142 1.0 4.0 0.00 0.78 0.53 96 1006.5
20240623104527 70 143 2.0 4.0 0.00 0.78 0.53 96 1006.6
20240623103530 70 183 2.0 4.0 0.00 0.78 0.53 96 1006.7
20240623102535 70 156 3.0 4.0 0.00 0.78 0.53 96 1006.9
20240623101520 70 177 3.0 5.0 0.00 0.78 0.53 96 1007.1
20240623100522 70 147 1.0 3.0 0.01 0.78 0.53 96 1007.2
20240623095525 69 167 1.0 3.0 0.01 0.78 0.53 96 1007.2
20240623094549 69 141 1.0 3.0 0.01 0.78 0.53 96 1007.4
20240623093531 69 129 2.0 3.0 0.01 0.78 0.53 96 1007.7
20240623092516 69 138 2.0 3.0 0.01 0.78 0.53 96 1007.9
20240623091520 69 207 1.0 3.0 0.01 0.78 0.53 96 1008.1
20240623090522 69 182 1.0 3.0 0.00 0.77 0.52 96 1008.3
20240623085526 68 156 1.0 3.0 0.01 0.77 0.52 96 1008.4
20240623084529 68 150 1.0 3.0 0.03 0.77 0.52 96 1008.3
20240623083527 68 104 1.0 3.0 0.06 0.77 0.52 96 1008.6
20240623082517 68 115 2.0 6.0 0.27 0.77 0.52 96 1008.8
20240623081521 67 163 1.0 2.0 0.27 0.77 0.52 96 1009.1
20240623080519 67 124 1.0 3.0 0.27 0.77 0.52 96 1009.3
20240623075521 66 125 1.0 3.0 0.26 0.76 0.51 95 1009.5
20240623074524 66 134 2.0 4.0 0.24 0.74 0.49 95 1010.1
20240623073528 66 117 1.0 3.0 0.21 0.71 0.46 95 1010.5
20240623072531 66 0.0 0.0 0.00 0.50 0.25 95 1010.1
20240623071516 66 0.0 0.0 0.00 0.50 0.25 95 1010.4
20240623070519 66 90 0.0 2.0 0.01 0.50 0.25 95 1010.4
20240623065522 66 136 1.0 3.0 0.01 0.50 0.25 95 1010.5
20240623064546 66 57 0.0 2.0 0.02 0.50 0.25 95 1010.8
20240623063529 66 111 1.0 3.0 0.04 0.50 0.25 95 1012.1
20240623062532 66 0.0 0.0 0.04 0.50 0.25 95 1011.8
20240623061517 66 0.0 0.0 0.04 0.50 0.25 94 1012.2
20240623060521 66 326 0.0 2.0 0.03 0.49 0.24 94 1012.7
20240623055543 66 0.0 0.0 0.03 0.49 0.24 94 1013.1
20240623054527 66 322 1.0 3.0 0.02 0.48 0.23 94 1013.6
20240623053530 66 0.0 0.0 0.01 0.46 0.21 94 1012.8
20240623052533 66 338 0.0 2.0 0.01 0.46 0.21 94 1012.4
20240623051538 66 0.0 0.0 0.02 0.46 0.21 94 1012.9
20240623050542 66 60 1.0 4.0 0.02 0.46 0.21 94 1012.9
20240623045524 66 139 1.0 2.0 0.02 0.46 0.21 94 1013.0
20240623044521 66 0.0 0.0 0.02 0.46 0.21 94 1013.3
20240623043559 66 113 1.0 5.0 0.01 0.45 0.20 94 1013.6
20240623042516 66 0 0.0 3.0 0.01 0.45 0.20 94 1013.9
20240623041520 65 233 1.0 3.0 0.00 0.44 0.19 94 1013.9
20240623040522 65 60 1.0 3.0 0.01 0.44 0.19 94 1014.1
20240623035525 65 159 1.0 4.0 0.01 0.44 0.19 94 1014.3
20240623034528 65 326 2.0 4.0 0.01 0.44 0.19 94 1014.5
20240623033531 65 123 0.0 2.0 0.01 0.44 0.19 94 1014.8
20240623032517 65 157 1.0 3.0 0.01 0.44 0.19 93 1015.1
20240623031519 65 107 1.0 3.0 0.01 0.44 0.19 93 1015.6
20240623030523 65 184 1.0 3.0 0.00 0.43 0.18 93 1015.8
20240623025525 65 0.0 2.0 0.00 0.43 0.18 93 1016.0
20240623024529 65 117 0.0 2.0 0.00 0.43 0.18 93 1016.2
20240623023552 65 0.0 0.0 0.00 0.43 0.18 93 1016.0
20240623022517 65 0.0 0.0 0.00 0.43 0.18 93 1015.8
20240623021522 66 0 0.0 3.0 0.00 0.43 0.18 93 1016.0
20240623020523 66 1 1.0 2.0 0.00 0.43 0.18 93 1016.3
20240623015522 66 0.0 1.0 0.00 0.43 0.18 93 1016.6
20240623014545 66 0.0 0.0 0.00 0.43 0.18 93 1016.7
20240623013548 66 0.0 0.0 0.01 0.43 0.18 93 1016.7
20240623012525 66 293 0.0 2.0 0.03 0.43 0.18 93 1016.7
20240623011516 66 127 1.0 4.0 0.03 0.43 0.18 92 1017.0
20240623010520 66 41 1.0 3.0 0.03 0.43 0.18 92 1017.1
20240623005517 66 0.0 1.0 0.03 0.43 0.18 92 1017.1
20240623004520 66 16 1.0 3.0 0.03 0.43 0.18 92 1016.7
20240623003524 66 198 1.0 4.0 0.02 0.42 0.17 92 1017.5
20240623002526 67 90 0.0 1.0 0.00 0.40 0.15 92 1017.7
20240623001530 67 203 0.0 3.0 0.02 0.40 0.15 92 1017.5
20240623000533 67 90 0.0 1.0 0.15 0.40 0.15 92 1017.5
20240622235519 67 158 0.0 2.0 0.15 0.40 0.15 91 1017.5
20240622234522 67 72 0.0 2.0 0.15 0.40 0.15 91 1017.7
20240622233525 68 338 0.0 2.0 0.15 0.40 0.15 91 1017.7
20240622232528 68 319 1.0 2.0 0.15 0.40 0.15 90 1017.9
20240622231531 69 172 3.0 7.0 0.13 0.38 0.13 90 1018.6
20240622230529 71 319 2.0 4.0 0.00 0.25 0.00 85 1018.2
20240622225533 71 303 1.0 2.0 0.00 0.25 0.25 83 1017.4
20240622224517 71 352 1.0 2.0 0.00 0.25 0.25 83 1017.4
20240622223520 72 123 1.0 3.0 0.00 0.25 0.25 83 1017.7
20240622222524 72 270 0.0 1.0 0.00 0.25 0.25 82 1017.7
20240622221526 72 143 1.0 4.0 0.00 0.25 0.25 82 1017.7
20240622220530 72 69 2.0 4.0 0.00 0.25 0.25 82 1017.8
20240622215527 72 141 2.0 4.0 0.00 0.25 0.25 82 1017.9
20240622214518 73 53 1.0 3.0 0.00 0.25 0.25 82 1018.1
20240622213521 73 0.0 1.0 0.00 0.25 0.25 81 1018.2
20240622212518 73 116 1.0 3.0 0.00 0.25 0.25 81 1018.2
20240622211516 73 162 2.0 4.0 0.00 0.25 0.25 81 1018.7
20240622210530 73 131 2.0 5.0 0.00 0.25 0.25 81 1018.8
20240622205515 73 179 1.0 4.0 0.00 0.25 0.25 82 1018.9
20240622204519 73 135 0.0 2.0 0.00 0.25 0.25 81 1019.1
20240622203522 73 90 0.0 2.0 0.00 0.25 0.25 81 1019.6
20240622202545 73 184 1.0 3.0 0.00 0.25 0.25 81 1019.5
20240622201529 73 52 2.0 4.0 0.00 0.25 0.25 80 1019.3
20240622200551 74 308 1.0 3.0 0.00 0.25 0.25 80 1019.3
20240622195517 74 142 2.0 4.0 0.00 0.25 0.25 81 1019.4
20240622194520 73 111 2.0 4.0 0.00 0.25 0.25 80 1019.6
20240622193523 73 129 3.0 6.0 0.00 0.25 0.25 81 1019.8
20240622192526 73 150 2.0 5.0 0.00 0.25 0.25 80 1019.9
20240622191529 74 141 3.0 4.0 0.00 0.25 0.25 79 1020.0
20240622190553 73 167 1.0 5.0 0.00 0.25 0.25 80 1020.1
20240622185517 74 99 2.0 5.0 0.00 0.25 0.25 79 1020.1
20240622184521 75 166 2.0 5.0 0.00 0.25 0.25 78 1020.2
20240622183544 74 105 2.0 5.0 0.00 0.25 0.25 78 1020.6
20240622182527 74 152 2.0 5.0 0.00 0.25 0.25 78 1020.6
20240622181524 73 84 1.0 4.0 0.00 0.25 0.25 79 1020.7